Theta_e
291 284 281 285 288 289 289 286 286 289 289 288 287 287 290 292 290 290 291 292 293 294 296 296 298 301 313 308 309 308 307 305 304 302 300 298 297 297 298 298 299 300 300 300
286 282 287 289 289 288 287 284 283 289 289 287 287 287 290 292 291 292 292 291 293 294 295 295 296 300 310 305 307 304 304 304 302 302 300 298 298 297 297 298 299 299 299 298
283 287 292 288 287 287 286 284 284 285 288 288 285 286 287 291 294 295 294 295 295 296 295 294 295 296 303 302 302 302 302 302 301 301 300 297 297 296 295 296 296 297 298 297
287 290 289 287 287 288 283 289 289 288 284 280 286 281 286 290 291 293 295 294 296 294 295 294 294 294 300 299 298 299 299 299 298 300 299 297 294 293 294 295 296 296 297 296
286 288 286 287 287 290 287 289 287 287 281 278 279 276 282 290 291 291 292 294 292 292 293 292 293 295 297 296 295 295 296 298 298 297 298 295 294 294 294 295 295 295 295 295
287 292 289 287 287 289 290 286 285 283 279 269 282 281 283 286 289 291 292 293 292 291 291 291 293 295 293 293 293 294 296 297 299 298 295 294 294 294 293 293 293 293 293 293
286 287 290 289 285 288 289 285 278 275 275 274 282 278 285 289 290 292 293 292 290 291 291 292 293 293 293 293 294 295 296 294 295 295 295 294 294 294 293 292 291 291 291 291
277 275 288 290 286 284 285 285 279 273 274 275 279 278 284 289 292 291 293 292 290 289 291 292 292 293 293 294 294 294 294 293 294 294 293 293 294 293 292 292 291 291 290 291
280 279 288 289 287 288 284 280 286 280 279 277 277 282 288 288 287 286 286 288 288 289 290 291 292 293 293 293 293 294 293 293 293 293 293 293 293 292 292 291 291 290 291 292
284 277 285 286 288 289 286 289 279 280 274 273 276 277 281 284 285 285 285 285 287 288 289 290 292 292 293 294 294 293 294 293 293 293 293 293 292 292 291 291 290 290 290 291
284 281 278 282 280 281 281 280 283 284 281 277 277 276 284 284 285 285 285 286 287 288 288 289 290 291 292 292 293 293 292 293 293 293 292 292 291 291 291 290 290 290 290 290
283 281 275 278 285 285 284 282 283 277 277 280 279 280 287 286 286 287 285 287 287 288 288 289 290 290 291 291 292 292 291 293 292 292 292 291 292 291 291 290 290 290 289 289
282 277 270 270 279 284 282 283 283 283 281 277 276 279 288 288 287 287 285 286 287 287 287 288 289 289 290 291 290 290 291 292 292 292 291 291 291 291 291 290 289 289 288 288
282 277 275 269 270 275 277 281 282 281 276 277 278 281 285 288 289 290 287 285 286 287 288 288 288 288 289 291 291 291 291 292 292 292 292 291 291 291 291 290 289 289 288 288
278 270 273 272 274 276 276 275 278 277 279 277 280 280 283 286 287 289 290 288 286 287 288 289 289 290 290 290 291 291 291 291 292 291 291 291 292 291 290 289 289 289 288 287
277 268 271 269 274 275 272 274 276 279 279 279 279 280 287 288 290 289 290 288 286 287 288 289 289 289 289 290 290 291 291 291 291 291 291 292 291 290 289 288 288 288 287 287
271 268 263 265 271 271 266 271 276 277 279 280 276 281 286 286 287 288 287 287 287 287 287 288 289 289 288 289 291 290 291 292 291 290 291 291 290 289 288 288 287 286 286 285
268 265 269 264 261 257 271 277 275 276 278 279 279 280 281 282 287 289 289 288 288 287 288 288 289 289 289 290 290 290 290 290 289 289 290 289 288 287 286 286 285 285 285 284
275 272 266 260 255 266 271 274 274 276 273 277 277 279 280 282 284 284 286 288 289 287 288 289 290 290 289 289 289 289 288 288 287 287 287 287 287 285 285 283 283 283 283 283
275 275 269 264 261 261 270 276 278 279 270 277 279 279 279 281 275 279 285 285 285 285 284 287 288 287 288 288 288 288 287 287 287 287 287 287 286 285 284 283 283 284 283 283
257 256 259 260 259 266 273 276 278 268 270 278 278 279 279 277 279 283 285 285 284 281 283 284 284 286 287 287 288 287 287 286 288 287 286 285 285 284 283 282 284 284 283 284
265 263 259 252 252 256 275 275 271 275 277 278 278 279 280 281 281 283 283 284 285 283 280 282 283 284 283 285 287 287 287 288 286 286 284 283 282 281 282 282 283 284 283 282
263 269 266 266 265 274 276 275 278 279 278 276 277 279 282 280 280 281 281 282 283 283 282 281 279 282 282 284 287 286 287 284 284 284 283 281 280 281 282 281 281 282 282 280
271 274 270 271 273 274 276 277 277 278 278 279 279 280 279 280 280 281 282 282 282 283 283 279 280 279 279 282 284 287 285 284 284 283 281 279 280 279 281 281 281 279 278 277
272 272 271 271 274 275 276 277 278 278 278 279 279 278 280 280 280 281 282 281 282 282 283 282 281 281 280 279 281 282 282 283 283 282 281 281 281 280 279 279 280 280 278 280
274 272 270 269 275 274 275 278 279 277 277 278 278 278 279 279 279 281 281 282 281 281 282 281 279 278 278 276 277 278 282 283 282 281 281 281 281 279 280 280 277 284 284 285
Wind_Speed
4 3 8 12 14 5 6 5 5 2 3 4 9 9 12 9 7 9 9 9 10 11 9 9 9 8 9 9 12 14 15 12 11 9 8 5 7 5 4 5 7 6 5 5
3 10 10 8 9 11 12 9 9 6 4 4 5 12 10 9 9 14 14 12 13 7 8 8 9 7 12 11 11 11 14 16 11 8 5 4 8 3 4 4 5 6 6 5
8 7 1 8 10 7 10 15 5 8 3 4 3 13 8 10 17 13 15 13 15 16 13 8 9 9 10 13 13 14 13 13 11 11 8 5 6 4 3 3 4 4 6 6
11 11 18 12 9 9 13 6 8 7 4 6 2 13 6 7 11 11 18 14 16 11 10 11 9 8 10 9 9 12 11 11 9 12 12 14 6 5 4 4 4 5 6 6
7 9 5 5 12 9 9 3 4 6 5 5 4 2 7 9 16 10 11 15 11 10 14 13 11 10 8 10 10 9 11 10 11 9 11 7 7 5 4 4 7 6 4 5
17 13 5 4 3 4 5 5 6 4 4 0 14 10 12 9 8 7 6 12 15 12 9 8 8 9 8 8 11 11 12 7 9 9 9 10 13 9 7 5 5 4 3 3
5 7 5 7 6 2 4 5 2 3 3 10 8 7 24 5 6 7 10 10 10 10 11 12 11 11 12 13 12 11 13 8 8 9 8 9 9 9 9 7 5 6 3 2
4 8 3 3 11 7 12 11 7 8 7 6 1 11 15 4 12 8 9 7 10 10 10 12 13 13 13 12 11 11 11 9 8 8 8 7 8 6 5 6 5 4 4 4
5 6 3 6 6 3 2 8 6 5 1 1 5 7 10 6 5 0 4 7 10 9 9 11 11 12 12 11 10 12 10 7 8 8 8 7 7 8 7 7 6 4 5 4
5 8 6 2 3 5 8 5 2 3 5 7 5 5 7 6 6 2 5 7 7 7 8 11 12 12 9 10 9 9 9 10 8 8 7 7 7 7 7 6 7 6 5 4
11 6 5 4 5 5 4 4 5 5 4 3 2 5 4 6 7 7 7 6 8 8 8 8 8 8 8 8 10 10 10 10 10 9 7 8 7 7 7 6 6 6 5 5
6 5 9 14 7 2 4 10 11 4 3 3 3 3 5 6 8 2 4 7 6 8 8 8 9 9 9 9 9 11 8 10 9 8 8 8 7 7 6 6 6 6 6 5
8 3 7 13 5 2 3 3 5 3 2 5 3 2 3 9 13 10 6 5 7 8 8 7 8 10 10 9 8 9 9 9 8 8 8 7 7 7 7 6 6 6 6 5
13 7 6 4 13 14 13 5 4 4 4 3 9 12 11 14 13 15 7 2 4 9 10 8 7 7 8 9 10 10 9 9 9 9 8 8 7 6 6 6 6 6 5 5
4 6 12 20 19 7 10 14 12 11 11 8 4 8 17 12 10 14 9 2 4 4 6 8 10 10 9 8 8 7 7 9 9 9 8 8 7 6 7 6 5 5 5 4
4 7 14 17 11 13 21 22 14 14 15 13 16 23 15 12 5 8 9 9 3 5 6 8 6 8 8 11 11 10 10 10 10 10 9 8 8 7 6 6 6 5 5 5
5 3 1 11 12 10 9 6 3 6 10 13 14 19 12 7 13 11 5 8 8 7 8 11 11 11 10 9 11 13 13 11 11 10 9 9 9 8 7 6 6 6 5 4
9 3 4 7 5 4 11 8 6 7 5 14 14 16 15 19 16 11 8 7 8 7 8 9 9 9 10 9 10 6 10 9 11 10 10 9 9 8 7 7 6 5 4 4
12 9 5 4 6 9 14 11 6 6 5 14 14 18 20 24 10 8 17 11 6 6 8 9 9 9 8 11 10 10 8 8 8 10 11 10 10 10 8 7 6 4 4 4
3 7 4 2 4 5 6 8 11 11 7 11 13 17 20 21 12 8 19 13 10 8 4 6 6 4 8 9 11 13 14 13 13 13 12 11 11 10 10 8 7 3 3 4
6 6 3 6 6 6 4 8 9 5 8 12 5 11 15 13 11 17 18 15 5 3 7 4 4 5 8 5 11 13 12 16 17 10 9 9 9 11 9 8 5 5 4 3
5 3 5 2 2 9 3 9 3 7 8 6 7 8 7 9 13 12 13 18 17 11 7 5 5 6 4 6 10 13 16 14 7 12 11 10 9 6 7 9 7 6 5 4
4 8 6 9 8 7 10 12 14 9 8 9 10 8 8 12 12 12 9 10 15 15 11 6 6 5 4 5 10 12 11 9 11 12 11 10 8 8 8 8 8 5 5 4
6 9 8 14 18 17 13 14 7 6 12 13 10 7 9 11 10 13 13 10 9 11 13 5 6 7 6 7 10 12 7 11 13 13 11 10 11 9 7 5 5 5 5 4
10 4 15 13 17 19 17 16 16 13 8 8 9 8 8 8 14 12 14 10 10 12 12 9 6 7 9 7 9 7 8 12 13 12 11 10 8 9 7 5 6 6 4 5
13 20 13 16 20 14 16 17 18 12 13 10 13 15 13 10 14 14 14 11 8 10 12 10 7 7 8 6 6 6 9 13 13 12 9 8 8 6 5 5 3 8 10 10
Wind_Direction
224 187 211 202 210 208 204 215 230 269 246 162 225 249 253 253 218 236 233 221 211 212 217 201 198 169 144 139 143 145 139 141 136 140 130 134 130 127 102 96 105 97 87 75
305 247 239 231 226 229 245 255 255 271 191 185 263 256 248 247 229 217 219 222 221 202 202 182 188 161 160 155 153 146 150 151 146 146 147 144 131 116 123 113 100 101 93 83
208 230 51 220 249 232 229 230 212 223 201 251 356 273 240 241 236 229 219 216 215 207 191 182 165 163 153 156 158 152 152 150 156 136 116 101 84 83 97 111 108 110 106 97
248 241 250 257 232 218 254 199 187 206 120 237 169 273 249 228 236 220 225 211 218 193 178 178 168 164 159 164 148 144 144 140 139 146 147 149 142 146 161 142 133 119 109 101
272 356 350 258 239 191 246 197 204 199 161 81 237 346 258 226 237 229 222 217 201 188 177 178 172 160 155 147 143 132 125 132 142 141 142 133 119 120 118 117 118 121 115 115
267 281 268 258 326 330 84 27 28 59 104 346 227 180 256 208 209 237 211 214 199 184 171 154 153 134 125 127 128 130 125 119 129 133 126 131 135 136 129 129 122 126 121 108
294 246 221 183 251 339 103 102 234 236 228 233 169 178 249 256 265 231 227 222 183 165 156 155 149 141 141 141 138 131 129 128 123 125 125 130 130 130 132 136 135 132 125 111
280 325 58 273 230 207 195 187 199 216 195 230 58 208 244 235 246 244 232 195 144 150 154 152 147 146 148 141 135 128 130 129 127 123 124 121 120 125 123 130 131 128 129 138
299 252 329 63 347 43 214 236 288 323 174 238 223 276 294 235 249 112 140 135 149 148 140 137 138 144 142 141 140 141 135 131 132 131 127 123 124 125 130 127 123 126 127 131
306 289 228 199 135 174 219 327 275 200 228 238 238 260 246 334 282 280 176 157 138 132 136 142 146 144 144 143 137 132 138 146 146 136 134 135 132 131 131 126 129 128 125 111
296 245 300 348 215 208 152 245 240 284 249 260 221 260 242 298 308 238 206 174 154 149 146 136 136 138 138 132 142 145 146 148 149 146 140 137 139 132 126 126 129 130 115 113
305 296 286 256 242 348 276 220 208 233 238 241 323 261 339 0 350 310 208 162 149 147 147 143 144 141 146 147 148 156 153 154 156 145 141 141 135 133 130 133 130 119 129 138
334 304 326 323 353 40 244 295 262 279 267 236 290 219 13 32 23 17 31 154 151 143 140 134 138 151 153 155 154 156 160 158 151 144 143 140 139 142 144 133 131 141 148 148
4 320 285 334 316 306 298 305 297 255 263 268 241 261 243 25 15 353 360 50 166 155 157 143 143 157 161 162 165 165 164 158 155 149 148 151 158 152 144 142 146 152 151 140
36 283 309 314 310 318 314 328 302 284 294 269 334 305 293 304 319 329 301 91 138 165 150 165 168 170 166 168 169 164 161 159 158 155 157 164 155 148 141 142 154 155 147 142
281 274 302 281 299 317 321 303 270 256 258 258 277 284 284 281 198 240 249 282 242 186 197 182 178 168 186 181 177 171 170 170 159 168 166 161 153 147 153 152 163 156 153 144
233 238 310 279 290 314 305 255 322 320 289 280 279 279 303 263 231 239 239 240 237 213 200 184 189 189 183 194 188 185 182 169 165 166 169 164 159 159 163 164 160 165 158 142
240 211 238 263 8 232 236 257 281 270 333 20 12 357 354 338 268 221 215 209 235 223 219 220 206 199 196 192 190 160 156 177 172 168 173 165 159 161 163 164 159 162 155 149
218 237 244 198 211 281 309 296 339 306 59 26 4 349 347 344 310 68 12 348 304 246 254 246 220 210 176 180 170 156 169 165 169 180 177 173 163 165 168 158 168 175 157 146
351 220 186 225 224 295 270 358 312 289 239 17 2 357 353 347 356 328 335 336 344 350 303 281 270 211 180 187 169 171 177 175 191 193 185 171 165 165 168 164 163 172 158 156
338 345 190 266 275 258 248 316 317 276 332 317 343 338 330 327 307 303 313 321 327 282 312 312 273 231 227 172 172 185 183 196 197 168 168 164 165 170 163 147 156 161 164 166
266 234 262 58 49 298 230 345 352 287 293 272 316 316 280 300 306 315 330 327 326 322 316 299 264 258 237 181 187 198 198 193 172 156 165 167 169 158 150 146 156 159 157 188
246 200 234 187 220 262 288 274 280 260 248 292 289 291 271 297 300 309 301 313 314 311 300 293 249 253 239 210 204 206 208 163 163 161 170 166 157 152 152 153 156 156 180 192
255 247 256 274 265 265 268 276 250 243 271 273 268 240 268 273 293 301 299 298 303 301 300 277 285 275 249 212 218 225 183 169 166 171 169 159 161 155 160 158 155 156 178 191
250 247 253 260 272 272 268 265 269 273 251 253 273 269 243 275 291 294 292 296 299 305 302 294 266 258 254 211 221 205 178 167 176 174 165 162 159 164 164 170 174 184 206 178
245 248 253 257 259 260 269 273 269 270 279 250 262 271 263 248 271 279 274 282 283 301 300 287 264 266 265 211 211 189 177 178 169 161 159 164 160 160 156 165 194 235 226 217